Printer-friendly version

IAU Minor Planet Center

Minor Planet Center

MPEC 2008-S95 : 2008 SY148

The following Minor Planet Electronic Circular may be linked-to from your own Web pages, but must not otherwise be redistributed electronically.


Read MPEC 2008-S94 Read MPEC 2008-S96


M.P.E.C. 2008-S95                                Issued 2008 Sept. 30, 18:07 UT

     The Minor Planet Electronic Circulars contain information on unusual
         minor planets and routine data on comets.  They are published
   on behalf of Commission 20 of the International Astronomical Union by the
          Minor Planet Center, Smithsonian Astrophysical Observatory,
                          Cambridge, MA 02138, U.S.A.

             Prepared using the Tamkin Foundation Computer Network

                              MPC@CFA.HARVARD.EDU
          URL http://www.cfa.harvard.edu/iau/mpc.html  ISSN 1523-6714

                                  2008 SY148

Observations:
     K08SE8Y* C2008 09 29.40551 05 15 15.92 +04 04 19.3          18.3   ES095704
     K08SE8Y  C2008 09 29.41782 05 15 15.18 +03 56 09.4          19.6   ES095704
     K08SE8Y  C2008 09 29.43041 05 15 14.71 +03 47 48.6          18.5   ES095704
     K08SE8Y  C2008 09 29.44275 05 15 14.05 +03 39 38.4          18.6   ES095704
     K08SE8Y  C2008 09 30.39405 05 15 24.90 -06 15 26.0          17.2 R ES095H36
     K08SE8Y  C2008 09 30.39487 05 15 24.86 -06 15 55.7          16.9 R ES095H36
     K08SE8Y  C2008 09 30.39850 05 15 24.66 -06 18 02.4          17.3 R ES095H36
     K08SE8Y 5C2008 09 30.51549 05 15 22.35 -07 25 36.2          17.3 R ES095673
     K08SE8Y 5C2008 09 30.51960 05 15 22.10 -07 27 57.7                 ES095673
     K08SE8Y 5C2008 09 30.52492 05 15 21.83 -07 31 00.7                 ES095673
     K08SE8Y 5C2008 09 30.52943 05 15 21.56 -07 33 36.0                 ES095673

Observer details:
673 Table Mountain Observatory, Wrightwood.  Observer J. Young.  0.61-m f/16
    Cassegrain + CCD.
704 Lincoln Laboratory ETS, New Mexico.  Observers M. Bezpalko, D. Torres,
    R. Kracke, G. Spitz, J. Kistler.  Measurers J. Stuart, S. Scruggs.  1.0-m
    f/2.15 reflector + CCD.
H36 Sandlot Observatory, Scranton.  Observer G. Hug.  0.56-m reflector + CCD.

Orbital elements:
2008 SY148                                          PHA, Earth MOID = 0.0126 AU
Epoch 2008 Nov. 30.0 TT = JDT 2454800.5                 MPC
M  54.88866              (2000.0)            P               Q
n   0.70376185     Peri.  164.36018     +0.98516288     +0.16038619
a   1.2517537      Node   187.28574     -0.15461885     +0.98389418
e   0.1943419      Incl.   28.79064     +0.07447893     -0.07892086
P   1.40           H   21.8           G   0.15           U   9
Residuals in seconds of arc
080929 704  0.5+  0.2-    080930 H36  0.3-  0.3+    080930 673  0.6-  0.2+
080929 704  2.0-  0.1+    080930 H36  0.3-  0.6-    080930 673  0.2-  0.1+
080929 704  0.2+  0.2+    080930 H36  0.7-  0.1+    080930 673  0.5-  0.4-
080929 704  0.3-  0.4+    080930 673  0.2-  0.4+

Ephemeris:
2008 SY148               a,e,i = 1.25, 0.19, 29                  q = 1.0085
Date    TT    R. A. (2000) Decl.     Delta      r     Elong.  Phase     V
2008 10 01    05 15.42   -11 49.9    0.0507   1.018   107.4    69.8    17.8
2008 10 02    05 15.47   -19 51.1    0.0558   1.019   106.9    70.1    18.0
2008 10 03    05 15.46   -26 25.6    0.0617   1.020   106.3    70.4    18.3
2008 10 04    05 15.38   -31 47.0    0.0683   1.021   105.5    70.8    18.5
2008 10 05    05 15.25   -36 09.6    0.0754   1.022   104.8    71.1    18.7
2008 10 06    05 15.07   -39 45.8    0.0829   1.023   104.1    71.4    18.9
2008 10 07    05 14.84   -42 45.5    0.0906   1.024   103.5    71.5    19.1
2008 10 08    05 14.57   -45 16.5    0.0985   1.026   103.0    71.7    19.3
2008 10 09    05 14.25   -47 24.6    0.106    1.027   102.5    71.7    19.5
2008 10 10    05 13.90   -49 14.2    0.115    1.029   102.0    71.7    19.7
2008 10 11    05 13.51   -50 49.0    0.123    1.030   101.6    71.7    19.8
2008 10 12    05 13.09   -52 11.6    0.131    1.032   101.2    71.6    20.0
2008 10 13    05 12.63   -53 24.0    0.139    1.033   100.9    71.5    20.1
2008 10 14    05 12.14   -54 27.9    0.148    1.035   100.6    71.4    20.2
2008 10 15    05 11.61   -55 24.7    0.156    1.036   100.3    71.2    20.3
2008 10 16    05 11.05   -56 15.4    0.164    1.038   100.0    71.0    20.4
2008 10 17    05 10.46   -57 00.8    0.173    1.040    99.7    70.8    20.6
2008 10 18    05 09.83   -57 41.7    0.181    1.042    99.5    70.6    20.7
2008 10 19    05 09.17   -58 18.7    0.189    1.043    99.3    70.4    20.7
2008 10 20    05 08.48   -58 52.2    0.198    1.045    99.1    70.2    20.8
2008 10 21    05 07.75   -59 22.5    0.206    1.047    98.9    69.9    20.9
2008 10 22    05 06.99   -59 50.2    0.214    1.049    98.7    69.7    21.0
2008 10 23    05 06.19   -60 15.3    0.222    1.051    98.5    69.4    21.1
2008 10 24    05 05.36   -60 38.3    0.230    1.053    98.4    69.1    21.2
2008 10 25    05 04.50   -60 59.2    0.238    1.055    98.2    68.8    21.2
2008 10 26    05 03.61   -61 18.2    0.246    1.057    98.1    68.6    21.3
2008 10 27    05 02.69   -61 35.5    0.254    1.059    98.0    68.3    21.4
2008 10 28    05 01.74   -61 51.3    0.262    1.062    97.8    68.0    21.4
2008 10 29    05 00.76   -62 05.5    0.270    1.064    97.7    67.7    21.5
2008 10 30    04 59.76   -62 18.4    0.278    1.066    97.6    67.4    21.5
2008 10 31    04 58.74   -62 30.1    0.286    1.068    97.5    67.1    21.6

Timothy B. Spahr             (C) Copyright 2008 MPC           M.P.E.C. 2008-S95

Read MPEC 2008-S94 Read MPEC 2008-S96


Our Web policy. Index to the CBAT/MPC/ICQ pages.


Valid HTML 4.01!